BREEZE-M R/B, 42909

Orbit data source: Space-Track

BREEZE-M R/B, 42909 is space debris in GEO originally from a launch on Wed, 16 Aug 2017 UTC launched from the Tyuratam Missile And Space Complex (TTMTR). Debris objects in space refer to the collection of defunct objects orbiting the Earth. Examples of debris include non-operational satellites, rocket bodies, and fragments generated from explosions, collisions, or faulty payload assembly.

Loading next visibility...
Identifier
42909, 2017-046C
Orbit
GEO
Country
Flag of CISCIS
Related business
Manufacturer
Khrunichev
Mission
Spacecraft
Bus & Motor
BRIZ, Unknown motor
Mass
~1,600 kg wet, 1,600 kg dry
Launch date (UTC)
2017-08-16 (8 years ago)
Launch vehicle
Unknown
Launch site
Tyuratam Missile And Space Complex (TTMTR)
Object type
Payload
Rocket body
Debris
Shape & HBR
Cyl, 2.0 m
Radar Cross Section
14.451 m²

Expand to show TLE details & history
Last TLE update: 1 day ago

TLE from 1 day ago
0 BREEZE-M R/B
1 42909U 17046C   25258.41509569 -.00000175  00000-0  00000-0 0  9997
2 42909   7.9123  71.0386 0750662 154.9681 209.0660  0.90332567 26672
Epoch: 2025-09-15T09:57Z
TLE epoch observation values (Epoch: 2025-09-15T09:57:44.267Z)
Latitude
0.00001°
Longitude
-72.87306°
Altitude
41,834.568 km
Speed
2.778 km/s
True Right ascension
04h 44m 43s
True Declination
0° 00' 00"
Sunlit
Object was in daylight at epoch
Visualization orbit readout
Latitude
Unknown
Longitude
Unknown
Altitude
Unknown
Speed
Unknown
Apparent Right ascension
Unknown
Apparent Declination
Unknown
Sunlit
N/A
Visualization observer readout
Local Sidereal Time
03:48:59
Azimuth
Unknown
Elevation
Unknown
Doppler factor
Unknown
Orbital elements
Apogee altitude
42,219.698 km
Perigee altitude
35,433.037 km
Semi-major axis
45,204.504 km
Eccentricity
0.07507
Inclination
7.9123°
RAAN
71.0386°
Arg. of periapsis
154.9681°
True anomaly
205.20752°
Mean anomaly
209.066°
Eccentric anomaly
207.10629°
Mean motion
0.22582 °/min
Orbital period
1,594.16 mins
BSTAR
0
Loading maneuver chart data...
Computing Atmospheric mass density...
Loading historical data...
Loading historical data...
Loading historical data...
Loading historical data...
Loading historical data...
Loading historical data...
Loading historical data...
Other satellites on launch #46 in the year 2017 (2017-08-16 UTC)

Documentation

Showing up to 5 results
|